LiveATC.Net - Listen to live air traffic control over the Internet!


ICAO: LFPG  IATA: CDG   Airport: Charles de Gaulle/Roissy Airport
City: Paris
Country: France   Continent: Europe
LFPG METAR Weather: LFPG 270900Z 20014KT 9999 BKN010 BKN200 09/07 Q1008 TEMPO BKN008
LFPG Flight Activity (FlightAware)

LFPG Tower
Feed Status: UP   Listeners: 5
Listen in your browser - HTML5 player (in browser, HTML5)
Click here to listen with your own player (launches your MP3 player)
Archive Access: LFPG Tower
FacilityFrequency
De Gaulle Tower119.250
De Gaulle Tower120.900

NOTICE

Unauthorized use prohibited. See LiveATC.net Terms of Service


Airport/ARTCC Code
Frequency Search
(e.g., 124.400, 128.75)
Site-wide search
 


Browse Feeds
Top 50 Feeds
Coverage Map
Bad Weather Areas

LiveATC FAQ
Offer LiveATC feed
Contact LiveATC.net
Press Inquiries

LiveATC on iPhone
LiveATC on Android

Windows Phone
Windows 8/10

LiveATC Mobile
(Mobile browser)

ATC Audio Archives
Interesting Recordings

LiveATC Forums


Home Page
About LiveATC.net
Make a Donation
Terms of Use
Privacy Policy

Canadian Air Freqs

AIRMETs/SIGMETs

FAA Airport Status
Nat'l Airspace Status
Arrival Demand Charts


Server Software By:
Icecast.org
Liquidsoap